TimeAKST,TemperatureF,Dew PointF,Humidity,Sea Level PressureIn,VisibilityMPH,Wind Direction,Wind SpeedMPH,Gust SpeedMPH,PrecipitationIn,Events,Conditions,WindDirDegrees,DateUTC
12:11 AM,-27.4,-32.8,75,30.24,6.0,North,3.5,-,N/A,,Mostly Cloudy,360,2013-02-05 09:11:00
12:34 AM,-29.2,-34.6,75,30.25,10.0,North,3.5,-,N/A,,Scattered Clouds,350,2013-02-05 09:34:00
12:53 AM,-29.9,-9999,N/A,30.26,10.0,NNW,3.5,-,N/A,,Clear,340,2013-02-05 09:53:00
1:53 AM,-29.0,-33.0,81,30.26,10.0,NNW,3.5,-,N/A,,Clear,330,2013-02-05 10:53:00
3:53 AM,-31.0,-9999,N/A,30.25,10.0,NW,3.5,-,N/A,,Clear,320,2013-02-05 12:53:00
4:53 AM,-36.9,-9999,N/A,30.25,10.0,South,3.5,-,N/A,,Clear,190,2013-02-05 13:53:00
5:53 AM,-34.1,-9999,N/A,30.25,10.0,Calm,Calm,-,N/A,,Clear,0,2013-02-05 14:53:00
6:53 AM,-36.0,-9999,N/A,30.25,10.0,SSW,3.5,-,N/A,,Clear,210,2013-02-05 15:53:00
7:53 AM,-38.9,-9999,N/A,30.25,10.0,SW,5.8,-,N/A,,Clear,230,2013-02-05 16:53:00
8:18 AM,-38.2,-9999,N/A,30.24,10.0,SSW,4.6,-,N/A,,Mostly Cloudy,200,2013-02-05 17:18:00
8:53 AM,-38.0,-9999,N/A,30.25,8.0,SW,5.8,-,N/A,,Overcast,220,2013-02-05 17:53:00
9:42 AM,-38.2,-9999,N/A,30.24,9.0,South,6.9,-,N/A,,Scattered Clouds,190,2013-02-05 18:42:00
9:53 AM,-38.9,-9999,N/A,30.25,10.0,SSW,6.9,-,N/A,,Scattered Clouds,200,2013-02-05 18:53:00
10:03 AM,-38.2,-9999,N/A,30.24,10.0,SSW,5.8,-,N/A,,Mostly Cloudy,210,2013-02-05 19:03:00
10:53 AM,-38.9,-9999,N/A,30.25,8.0,South,8.1,-,N/A,,Scattered Clouds,190,2013-02-05 19:53:00
11:53 AM,-38.9,-9999,N/A,30.25,10.0,SSW,5.8,-,N/A,,Scattered Clouds,210,2013-02-05 20:53:00
12:03 PM,-38.2,-9999,N/A,30.24,10.0,SSW,6.9,-,N/A,,Mostly Cloudy,200,2013-02-05 21:03:00
12:29 PM,-38.2,-9999,N/A,30.24,10.0,SSW,6.9,-,N/A,,Scattered Clouds,210,2013-02-05 21:29:00
12:53 PM,-38.0,-9999,N/A,30.25,5.0,SSW,6.9,-,N/A,,Haze,210,2013-02-05 21:53:00
1:53 PM,-38.0,-9999,N/A,30.25,10.0,SSW,5.8,-,N/A,,Scattered Clouds,200,2013-02-05 22:53:00
2:53 PM,-38.9,-9999,N/A,30.25,10.0,SSW,6.9,-,N/A,,Clear,200,2013-02-05 23:53:00
3:53 PM,-40.0,-9999,N/A,30.24,10.0,SSW,6.9,-,N/A,,Clear,200,2013-02-06 00:53:00
4:53 PM,-40.0,-9999,N/A,30.24,8.0,SSW,9.2,-,N/A,,Clear,210,2013-02-06 01:53:00
5:53 PM,-40.0,-9999,N/A,30.23,10.0,SSW,8.1,-,N/A,,Clear,210,2013-02-06 02:53:00
6:44 PM,-40.0,-9999,N/A,30.22,10.0,SSW,8.1,-,N/A,,Mostly Cloudy,200,2013-02-06 03:44:00
6:53 PM,-40.0,-9999,N/A,30.22,9.0,SSW,8.1,-,N/A,,Overcast,200,2013-02-06 03:53:00
7:53 PM,-38.9,-9999,N/A,30.22,10.0,SSW,5.8,-,N/A,,Overcast,210,2013-02-06 04:53:00
8:10 PM,-38.2,-9999,N/A,30.21,10.0,SSW,6.9,-,N/A,,Overcast,210,2013-02-06 05:10:00
8:22 PM,-38.2,-9999,N/A,30.21,9.0,SSW,6.9,-,N/A,,Overcast,210,2013-02-06 05:22:00
8:36 PM,-40.0,-9999,N/A,30.21,9.0,SSW,8.1,-,N/A,,Scattered Clouds,200,2013-02-06 05:36:00
8:53 PM,-40.0,-9999,N/A,30.22,10.0,SSW,8.1,-,N/A,,Scattered Clouds,210,2013-02-06 05:53:00
9:01 PM,-40.0,-9999,N/A,30.21,10.0,SSW,6.9,-,N/A,,Mostly Cloudy,210,2013-02-06 06:01:00
9:53 PM,-40.0,-9999,N/A,30.21,9.0,SSW,6.9,-,N/A,,Overcast,210,2013-02-06 06:53:00
10:53 PM,-40.0,-9999,N/A,30.20,8.0,SSW,9.2,-,N/A,,Partly Cloudy,200,2013-02-06 07:53:00
11:53 PM,-40.0,-9999,N/A,30.20,8.0,SSW,8.1,-,N/A,,Overcast,210,2013-02-06 08:53:00